| time (UTC) | temp F | wind direction | speed MPH | gust MPH | rain 1hr in | rain 24hr in | rain mn in | humidity % | barometer mb |
| 20260507105521 | 63 | 0 | 0.0 | 1.0 | 0.00 | 0.12 | 0.05 | 89 | 1009.9 |
| 20260507105021 | 63 | 0 | 0.0 | 2.0 | 0.00 | 0.12 | 0.05 | 89 | 1010.0 |
| 20260507104803 | 63 | 233 | 0.0 | 0.0 | 0.00 | 0.11 | 0.05 | 89 | 1012.0 |
| 20260507104543 | 63 | 0 | 0.0 | 2.0 | 0.00 | 0.12 | 0.05 | 89 | 1009.8 |
| 20260507104024 | 63 | 0 | 0.0 | 2.0 | 0.00 | 0.12 | 0.05 | 89 | 1009.9 |
| 20260507103733 | 63 | 237 | 0.0 | 0.0 | 0.00 | 0.11 | 0.05 | 89 | 1011.9 |
| 20260507103521 | 62 | 0 | 0.0 | 3.0 | 0.00 | 0.12 | 0.05 | 89 | 1009.8 |
| 20260507103042 | 63 | 282 | 1.0 | 4.0 | 0.00 | 0.12 | 0.05 | 89 | 1010.0 |
| 20260507102724 | 63 | 229 | 1.0 | 3.0 | 0.00 | 0.11 | 0.05 | 89 | 1011.8 |
| 20260507102521 | 63 | 0 | 0.0 | 4.0 | 0.00 | 0.12 | 0.05 | 89 | 1009.7 |
| 20260507102021 | 63 | 130 | 2.0 | 4.0 | 0.00 | 0.12 | 0.05 | 89 | 1009.7 |
| 20260507101723 | 63 | 166 | 0.0 | 1.0 | 0.00 | 0.11 | 0.05 | 89 | 1011.6 |
| 20260507101546 | 62 | 143 | 1.0 | 3.0 | 0.00 | 0.12 | 0.05 | 89 | 1009.7 |
| 20260507101022 | 62 | 0 | 0.0 | 3.0 | 0.00 | 0.12 | 0.05 | 89 | 1009.8 |
| 20260507100703 | 63 | 170 | 0.0 | 2.0 | 0.00 | 0.11 | 0.05 | 89 | 1011.9 |
| 20260507100520 | 62 | 170 | 1.0 | 3.0 | 0.00 | 0.12 | 0.05 | 89 | 1009.9 |
| 20260507100041 | 62 | 145 | 0.0 | 3.0 | 0.00 | 0.12 | 0.05 | 89 | 1009.9 |
| 20260507095701 | 63 | 145 | 1.0 | 2.0 | 0.00 | 0.11 | 0.05 | 89 | 1011.8 |
| 20260507095522 | 62 | 145 | 1.0 | 3.0 | 0.00 | 0.12 | 0.05 | 89 | 1009.7 |
| 20260507095023 | 63 | 147 | 1.0 | 3.0 | 0.00 | 0.12 | 0.05 | 89 | 1009.8 |
| 20260507094636 | 63 | 129 | 0.0 | 1.0 | 0.00 | 0.11 | 0.05 | 89 | 1012.0 |
| 20260507094540 | 63 | 153 | 0.0 | 2.0 | 0.00 | 0.12 | 0.05 | 89 | 1009.9 |
| 20260507094022 | 62 | 0 | 0.0 | 2.0 | 0.00 | 0.12 | 0.05 | 89 | 1010.0 |
| 20260507093523 | 63 | 153 | 0.0 | 3.0 | 0.00 | 0.12 | 0.05 | 89 | 1010.0 |
| 20260507093039 | 63 | 0 | 1.0 | 3.0 | 0.00 | 0.12 | 0.05 | 89 | 1010.0 |
| 20260507092524 | 63 | 171 | 0.0 | 2.0 | 0.00 | 0.12 | 0.05 | 89 | 1009.7 |
| 20260507092515 | 63 | 214 | 0.0 | 0.0 | 0.00 | 0.11 | 0.05 | 89 | 1011.8 |
| 20260507092023 | 62 | 0 | 0.0 | 1.0 | 0.00 | 0.12 | 0.05 | 89 | 1009.7 |
| 20260507091542 | 62 | 214 | 0.0 | 1.0 | 0.00 | 0.12 | 0.05 | 89 | 1009.7 |
| 20260507091531 | 63 | 214 | 0.0 | 0.0 | 0.00 | 0.11 | 0.05 | 89 | 1011.8 |
| 20260507091022 | 63 | 0 | 0.0 | 2.0 | 0.00 | 0.12 | 0.05 | 89 | 1010.0 |
| 20260507090531 | 63 | 197 | 0.0 | 0.0 | 0.00 | 0.11 | 0.05 | 89 | 1012.4 |
| 20260507090525 | 63 | 0 | 0.0 | 2.0 | 0.00 | 0.12 | 0.05 | 89 | 1010.3 |
| 20260507090042 | 63 | 0 | 0.0 | 2.0 | 0.00 | 0.12 | 0.05 | 89 | 1010.5 |
| 20260507085551 | 63 | 248 | 0.0 | 0.0 | 0.00 | 0.11 | 0.05 | 89 | 1012.5 |
| 20260507085522 | 63 | 0 | 0.0 | 2.0 | 0.00 | 0.12 | 0.05 | 89 | 1010.4 |
| 20260507085022 | 63 | 0 | 0.0 | 2.0 | 0.00 | 0.12 | 0.05 | 89 | 1010.4 |
| 20260507084609 | 63 | 325 | 0.0 | 2.0 | 0.00 | 0.11 | 0.05 | 89 | 1012.1 |
| 20260507084548 | 63 | 325 | 0.0 | 2.0 | 0.00 | 0.12 | 0.05 | 89 | 1010.0 |
| 20260507084031 | 63 | 276 | 0.0 | 2.0 | 0.00 | 0.12 | 0.05 | 89 | 1009.5 |
| 20260507083522 | 63 | 228 | 0.0 | 3.0 | 0.00 | 0.12 | 0.05 | 89 | 1009.4 |
| 20260507083048 | 63 | 0 | 0.0 | 3.0 | 0.01 | 0.12 | 0.05 | 89 | 1009.4 |
| 20260507082523 | 63 | 180 | 1.0 | 3.0 | 0.01 | 0.12 | 0.05 | 89 | 1009.5 |
| 20260507082424 | 63 | 209 | 0.0 | 2.0 | 0.00 | 0.11 | 0.05 | 89 | 1011.5 |
| 20260507082022 | 63 | 270 | 1.0 | 7.0 | 0.01 | 0.12 | 0.05 | 89 | 1009.5 |
| 20260507081540 | 63 | 162 | 2.0 | 7.0 | 0.02 | 0.12 | 0.05 | 89 | 1009.6 |
| 20260507081448 | 63 | 133 | 2.0 | 6.0 | 0.00 | 0.11 | 0.05 | 89 | 1011.7 |
| 20260507081022 | 63 | 178 | 2.0 | 7.0 | 0.02 | 0.12 | 0.05 | 89 | 1009.7 |
| 20260507080524 | 63 | 199 | 1.0 | 7.0 | 0.02 | 0.12 | 0.05 | 89 | 1009.8 |
| 20260507080437 | 63 | 229 | 2.0 | 6.0 | 0.00 | 0.11 | 0.05 | 89 | 1011.7 |
| 20260507080042 | 63 | 0 | 2.0 | 7.0 | 0.02 | 0.12 | 0.05 | 89 | 1009.6 |
| 20260507075522 | 63 | 200 | 2.0 | 8.0 | 0.03 | 0.12 | 0.05 | 89 | 1009.5 |
| 20260507075411 | 63 | 196 | 3.0 | 7.0 | 0.00 | 0.11 | 0.05 | 89 | 1011.5 |
| 20260507075022 | 63 | 160 | 2.0 | 8.0 | 0.04 | 0.12 | 0.05 | 89 | 1009.4 |
| 20260507074546 | 63 | 167 | 3.0 | 8.0 | 0.04 | 0.12 | 0.05 | 89 | 1009.5 |
| 20260507074405 | 63 | 195 | 2.0 | 10.0 | 0.04 | 0.11 | 0.05 | 89 | 1011.6 |
| 20260507074022 | 63 | 137 | 2.0 | 10.0 | 0.04 | 0.12 | 0.05 | 89 | 1009.8 |
| 20260507073523 | 63 | 166 | 4.0 | 11.0 | 0.04 | 0.12 | 0.05 | 89 | 1009.7 |
| 20260507073415 | 63 | 166 | 4.0 | 10.0 | 0.04 | 0.11 | 0.05 | 89 | 1011.6 |
| 20260507073047 | 63 | 164 | 6.0 | 11.0 | 0.03 | 0.11 | 0.04 | 89 | 1009.9 |
| 20260507072522 | 63 | 135 | 3.0 | 7.0 | 0.03 | 0.11 | 0.04 | 89 | 1010.3 |
| 20260507072410 | 63 | 154 | 3.0 | 5.0 | 0.01 | 0.11 | 0.04 | 89 | 1012.5 |
| 20260507072022 | 63 | 172 | 3.0 | 6.0 | 0.03 | 0.11 | 0.04 | 89 | 1010.3 |
| 20260507071558 | 63 | 198 | 2.0 | 6.0 | 0.02 | 0.10 | 0.03 | 89 | 1010.4 |
| 20260507071428 | 63 | 164 | 1.0 | 5.0 | 0.04 | 0.10 | 0.03 | 89 | 1012.4 |
| 20260507071027 | 63 | 222 | 0.0 | 4.0 | 0.02 | 0.10 | 0.03 | 89 | 1010.3 |
| 20260507070522 | 63 | 189 | 1.0 | 4.0 | 0.02 | 0.10 | 0.03 | 89 | 1010.2 |
| 20260507070041 | 63 | 184 | 1.0 | 4.0 | 0.02 | 0.10 | 0.03 | 89 | 1010.3 |
| 20260507065522 | 63 | 189 | 1.0 | 4.0 | 0.01 | 0.09 | 0.02 | 89 | 1010.7 |
| 20260507065258 | 63 | 177 | 1.0 | 3.0 | 0.00 | 0.08 | 0.01 | 89 | 1012.5 |
| 20260507065022 | 63 | 203 | 2.0 | 6.0 | 0.00 | 0.08 | 0.01 | 89 | 1010.5 |
| 20260507064545 | 63 | 176 | 1.0 | 6.0 | 0.00 | 0.08 | 0.01 | 89 | 1010.5 |
| 20260507064251 | 63 | 178 | 1.0 | 3.0 | 0.00 | 0.08 | 0.01 | 89 | 1012.4 |
| 20260507064024 | 63 | 166 | 1.0 | 6.0 | 0.00 | 0.08 | 0.01 | 89 | 1010.4 |
| 20260507063522 | 63 | 179 | 2.0 | 6.0 | 0.00 | 0.08 | 0.01 | 88 | 1010.6 |
| 20260507063041 | 63 | 204 | 2.0 | 6.0 | 0.00 | 0.08 | 0.01 | 88 | 1010.7 |
| 20260507062522 | 63 | 193 | 1.0 | 4.0 | 0.00 | 0.08 | 0.01 | 88 | 1011.0 |
| 20260507062209 | 64 | 241 | 1.0 | 5.0 | 0.00 | 0.08 | 0.01 | 88 | 1013.0 |
| 20260507062022 | 63 | 249 | 1.0 | 4.0 | 0.00 | 0.08 | 0.01 | 88 | 1011.0 |
| 20260507061536 | 63 | 182 | 2.0 | 4.0 | 0.00 | 0.08 | 0.01 | 88 | 1010.9 |
| 20260507061219 | 64 | 202 | 1.0 | 5.0 | 0.00 | 0.08 | 0.01 | 88 | 1012.8 |
| 20260507061021 | 63 | 182 | 2.0 | 6.0 | 0.01 | 0.08 | 0.01 | 88 | 1011.0 |
| 20260507060521 | 63 | 218 | 1.0 | 6.0 | 0.01 | 0.08 | 0.01 | 88 | 1011.4 |
| 20260507060240 | 64 | 189 | 1.0 | 3.0 | 0.00 | 0.08 | 0.01 | 88 | 1013.4 |
| 20260507060046 | 63 | 127 | 2.0 | 6.0 | 0.01 | 0.08 | 0.01 | 88 | 1011.5 |
| 20260507055521 | 63 | 220 | 1.0 | 6.0 | 0.01 | 0.08 | 0.01 | 88 | 1011.9 |
| 20260507055232 | 64 | 320 | 2.0 | 6.0 | 0.00 | 0.08 | 0.01 | 88 | 1014.2 |
| 20260507055023 | 63 | 301 | 2.0 | 7.0 | 0.01 | 0.08 | 0.01 | 88 | 1012.2 |
| 20260507054549 | 63 | 335 | 3.0 | 7.0 | 0.01 | 0.08 | 0.01 | 88 | 1011.9 |
| 20260507054221 | 64 | 193 | 2.0 | 6.0 | 0.00 | 0.08 | 0.01 | 88 | 1013.6 |
| 20260507054021 | 63 | 250 | 2.0 | 9.0 | 0.01 | 0.08 | 0.01 | 88 | 1011.6 |
| 20260507053521 | 63 | 187 | 3.0 | 9.0 | 0.01 | 0.08 | 0.01 | 88 | 1011.7 |
| 20260507053219 | 64 | 147 | 3.0 | 6.0 | 0.00 | 0.08 | 0.01 | 88 | 1013.8 |
| 20260507053047 | 63 | 197 | 3.0 | 8.0 | 0.01 | 0.08 | 0.01 | 88 | 1012.0 |
| 20260507052521 | 63 | 199 | 2.0 | 7.0 | 0.01 | 0.08 | 0.01 | 88 | 1012.1 |
| 20260507052223 | 64 | 183 | 2.0 | 5.0 | 0.01 | 0.08 | 0.01 | 88 | 1014.0 |
| 20260507052021 | 63 | 207 | 3.0 | 7.0 | 0.01 | 0.08 | 0.01 | 88 | 1012.0 |
| 20260507051540 | 63 | 185 | 2.0 | 4.0 | 0.01 | 0.08 | 0.01 | 88 | 1012.2 |
| 20260507051155 | 64 | 223 | 1.0 | 3.0 | 0.01 | 0.06 | 0.01 | 88 | 1014.3 |
| 20260507051021 | 63 | 203 | 1.0 | 4.0 | 0.00 | 0.07 | 0.00 | 88 | 1012.1 |
| 20260507050521 | 63 | 195 | 1.0 | 3.0 | 0.00 | 0.07 | 0.00 | 88 | 1012.2 |
| 20260507050205 | 64 | 238 | 0.0 | 0.0 | 0.00 | 0.06 | 0.00 | 88 | 1014.3 |
| 20260507050039 | 63 | 238 | 1.0 | 3.0 | 0.00 | 0.07 | 0.00 | 88 | 1012.3 |
| 20260507045522 | 63 | 308 | 1.0 | 4.0 | 0.00 | 0.07 | 0.00 | 88 | 1012.2 |
| 20260507045142 | 64 | 251 | 0.0 | 3.0 | 0.00 | 0.06 | 0.00 | 88 | 1014.2 |
| 20260507045023 | 63 | 251 | 1.0 | 4.0 | 0.00 | 0.07 | 0.00 | 88 | 1012.2 |
| 20260507044543 | 64 | 158 | 0.0 | 4.0 | 0.00 | 0.07 | 0.00 | 88 | 1012.0 |
| 20260507044206 | 64 | 216 | 0.0 | 2.0 | 0.00 | 0.06 | 0.00 | 88 | 1014.1 |
| 20260507044020 | 64 | 0 | 0.0 | 4.0 | 0.00 | 0.07 | 0.00 | 88 | 1012.1 |
| 20260507043521 | 64 | 0 | 0.0 | 3.0 | 0.00 | 0.07 | 0.00 | 88 | 1012.2 |
| 20260507043145 | 64 | 191 | 0.0 | 2.0 | 0.00 | 0.06 | 0.00 | 88 | 1014.1 |
| 20260507043043 | 64 | 0 | 0.0 | 4.0 | 0.00 | 0.07 | 0.00 | 88 | 1011.9 |
| 20260507042521 | 64 | 0 | 1.0 | 4.0 | 0.00 | 0.07 | 0.00 | 88 | 1011.9 |
| 20260507042126 | 64 | 178 | 1.0 | 3.0 | 0.00 | 0.06 | 0.00 | 88 | 1013.9 |
| 20260507042021 | 64 | 214 | 1.0 | 4.0 | 0.00 | 0.07 | 0.00 | 88 | 1011.8 |
| 20260507041542 | 64 | 257 | 1.0 | 8.0 | 0.01 | 0.07 | 0.00 | 88 | 1011.7 |
| 20260507041021 | 64 | 0 | 1.0 | 8.0 | 0.02 | 0.07 | 0.00 | 88 | 1011.6 |
| 20260507040522 | 64 | 206 | 3.0 | 8.0 | 0.02 | 0.07 | 0.00 | 88 | 1011.5 |
| 20260507040048 | 64 | 155 | 3.0 | 9.0 | 0.03 | 0.07 | 0.00 | 88 | 1011.8 |
| 20260507035957 | 65 | 224 | 3.0 | 7.0 | 0.00 | 0.06 | 0.06 | 88 | 1013.8 |
| 20260507035521 | 64 | 189 | 4.0 | 10.0 | 0.03 | 0.07 | 0.07 | 88 | 1011.7 |
| 20260507035021 | 64 | 209 | 3.0 | 10.0 | 0.03 | 0.07 | 0.07 | 88 | 1011.6 |
| 20260507034947 | 65 | 229 | 3.0 | 7.0 | 0.00 | 0.06 | 0.06 | 87 | 1013.6 |
| 20260507034547 | 64 | 206 | 3.0 | 8.0 | 0.04 | 0.07 | 0.07 | 87 | 1011.4 |
| 20260507034021 | 65 | 173 | 3.0 | 10.0 | 0.04 | 0.07 | 0.07 | 87 | 1011.5 |
| 20260507034005 | 65 | 200 | 3.0 | 8.0 | 0.00 | 0.06 | 0.06 | 88 | 1013.6 |
| 20260507033521 | 65 | 141 | 3.0 | 10.0 | 0.04 | 0.07 | 0.07 | 87 | 1011.5 |
| 20260507033038 | 65 | 178 | 5.0 | 10.0 | 0.04 | 0.07 | 0.07 | 87 | 1011.3 |
| 20260507033024 | 66 | 193 | 4.0 | 10.0 | 0.05 | 0.06 | 0.06 | 87 | 1013.4 |
| 20260507032520 | 65 | 152 | 4.0 | 12.0 | 0.04 | 0.07 | 0.07 | 87 | 1011.7 |
| 20260507032023 | 66 | 231 | 7.0 | 12.0 | 0.04 | 0.07 | 0.07 | 87 | 1012.9 |
| 20260507031951 | 66 | 193 | 3.0 | 10.0 | 0.10 | 0.06 | 0.06 | 87 | 1015.0 |
| 20260507031543 | 66 | 188 | 3.0 | 11.0 | 0.03 | 0.06 | 0.06 | 87 | 1013.1 |
| 20260507031022 | 66 | 200 | 3.0 | 11.0 | 0.02 | 0.05 | 0.05 | 87 | 1013.1 |
| 20260507031009 | 66 | 120 | 5.0 | 9.0 | 0.04 | 0.04 | 0.05 | 87 | 1015.0 |
| 20260507030522 | 66 | 181 | 5.0 | 12.0 | 0.02 | 0.05 | 0.05 | 87 | 1013.0 |
| 20260507030041 | 66 | 166 | 4.0 | 13.0 | 0.01 | 0.04 | 0.04 | 87 | 1012.8 |
| 20260507030021 | 67 | 193 | 4.0 | 11.0 | 0.01 | 0.04 | 0.04 | 87 | 1014.8 |
| 20260507025521 | 66 | 214 | 4.0 | 13.0 | 0.01 | 0.04 | 0.04 | 87 | 1012.8 |
| 20260507025034 | 67 | 248 | 5.0 | 13.0 | 0.01 | 0.04 | 0.04 | 87 | 1014.8 |
| 20260507025021 | 66 | 204 | 5.0 | 12.0 | 0.02 | 0.04 | 0.04 | 87 | 1012.8 |
| 20260507024541 | 66 | 234 | 6.0 | 14.0 | 0.01 | 0.03 | 0.03 | 87 | 1012.5 |
| 20260507024038 | 67 | 189 | 6.0 | 13.0 | 0.00 | 0.03 | 0.03 | 87 | 1014.2 |
| 20260507024023 | 67 | 247 | 5.0 | 14.0 | 0.01 | 0.03 | 0.03 | 87 | 1012.2 |
| 20260507023521 | 67 | 156 | 7.0 | 14.0 | 0.01 | 0.03 | 0.03 | 87 | 1012.3 |
| 20260507023053 | 67 | 154 | 4.0 | 11.0 | 0.00 | 0.03 | 0.03 | 87 | 1014.3 |
| 20260507023040 | 67 | 210 | 7.0 | 14.0 | 0.01 | 0.03 | 0.03 | 87 | 1012.2 |
| 20260507022521 | 67 | 198 | 3.0 | 9.0 | 0.01 | 0.03 | 0.03 | 87 | 1012.2 |
| 20260507022113 | 67 | 175 | 3.0 | 8.0 | 0.00 | 0.03 | 0.03 | 87 | 1014.2 |
| 20260507022022 | 67 | 177 | 5.0 | 9.0 | 0.01 | 0.03 | 0.03 | 87 | 1012.2 |
| 20260507021536 | 67 | 195 | 2.0 | 9.0 | 0.01 | 0.03 | 0.03 | 87 | 1012.1 |
| 20260507021138 | 68 | 262 | 3.0 | 7.0 | 0.00 | 0.03 | 0.03 | 87 | 1014.1 |
| 20260507021021 | 67 | 208 | 4.0 | 9.0 | 0.01 | 0.03 | 0.03 | 87 | 1012.1 |
| 20260507020523 | 67 | 219 | 4.0 | 9.0 | 0.01 | 0.03 | 0.03 | 87 | 1011.9 |
| 20260507020126 | 67 | 245 | 3.0 | 7.0 | 0.01 | 0.03 | 0.03 | 87 | 1014.0 |
| 20260507020035 | 67 | 195 | 3.0 | 9.0 | 0.02 | 0.03 | 0.03 | 87 | 1012.0 |
| 20260507015526 | 67 | 165 | 4.0 | 9.0 | 0.02 | 0.03 | 0.03 | 87 | 1011.9 |
| 20260507015112 | 67 | 212 | 2.0 | 5.0 | 0.00 | 0.02 | 0.02 | 87 | 1013.6 |
| 20260507015022 | 67 | 187 | 3.0 | 7.0 | 0.01 | 0.02 | 0.02 | 87 | 1011.5 |
| 20260507014547 | 67 | 174 | 2.0 | 7.0 | 0.01 | 0.02 | 0.02 | 87 | 1011.4 |
| 20260507014113 | 67 | 201 | 1.0 | 6.0 | 0.00 | 0.02 | 0.02 | 87 | 1013.5 |
| 20260507014022 | 67 | 249 | 3.0 | 7.0 | 0.02 | 0.02 | 0.02 | 87 | 1011.4 |
| 20260507013521 | 67 | 228 | 1.0 | 7.0 | 0.02 | 0.02 | 0.02 | 87 | 1011.1 |
| 20260507013048 | 67 | 110 | 2.0 | 6.0 | 0.00 | 0.02 | 0.02 | 87 | 1013.1 |
| 20260507013041 | 67 | 110 | 2.0 | 7.0 | 0.02 | 0.02 | 0.02 | 87 | 1011.0 |
| 20260507012526 | 67 | 188 | 2.0 | 4.0 | 0.02 | 0.02 | 0.02 | 87 | 1011.1 |
| 20260507012022 | 67 | 203 | 2.0 | 4.0 | 0.02 | 0.02 | 0.02 | 87 | 1011.4 |
| 20260507011551 | 67 | 218 | 1.0 | 4.0 | 0.02 | 0.02 | 0.02 | 86 | 1011.3 |
| 20260507011021 | 67 | 160 | 1.0 | 4.0 | 0.02 | 0.02 | 0.02 | 86 | 1011.2 |
| 20260507010521 | 67 | 170 | 2.0 | 4.0 | 0.01 | 0.01 | 0.01 | 86 | 1011.5 |
| 20260507010041 | 67 | 222 | 2.0 | 4.0 | 0.01 | 0.01 | 0.01 | 86 | 1011.6 |
| 20260507005919 | 68 | 185 | 1.0 | 5.0 | 0.01 | 0.01 | 0.01 | 86 | 1013.7 |
| 20260507005522 | 67 | 207 | 1.0 | 7.0 | 0.01 | 0.01 | 0.01 | 86 | 1011.6 |
| 20260507005023 | 68 | 0 | 2.0 | 7.0 | 0.01 | 0.01 | 0.01 | 85 | 1011.5 |
| 20260507004920 | 68 | 185 | 1.0 | 5.0 | 0.01 | 0.01 | 0.01 | 85 | 1013.6 |
| 20260507004540 | 68 | 260 | 1.0 | 6.0 | 0.00 | 0.00 | 0.00 | 85 | 1011.7 |
| 20260507004021 | 68 | 195 | 2.0 | 6.0 | 0.00 | 0.00 | 0.00 | 84 | 1011.6 |
| 20260507003522 | 68 | 249 | 1.0 | 4.0 | 0.00 | 0.00 | 0.00 | 84 | 1011.5 |
| 20260507003035 | 68 | 0 | 1.0 | 7.0 | 0.00 | 0.00 | 0.00 | 83 | 1011.5 |
| 20260507002521 | 69 | 167 | 2.0 | 7.0 | 0.00 | 0.00 | 0.00 | 83 | 1011.5 |
| 20260507002021 | 69 | 163 | 4.0 | 7.0 | 0.00 | 0.00 | 0.00 | 82 | 1011.5 |
| 20260507001556 | 69 | 187 | 2.0 | 6.0 | 0.00 | 0.00 | 0.00 | 82 | 1013.4 |
| 20260507001547 | 69 | 238 | 2.0 | 8.0 | 0.00 | 0.00 | 0.00 | 82 | 1011.4 |
| 20260507001021 | 69 | 191 | 3.0 | 8.0 | 0.00 | 0.00 | 0.00 | 81 | 1011.2 |
| 20260507000558 | 70 | 156 | 2.0 | 9.0 | 0.00 | 0.00 | 0.00 | 81 | 1013.3 |
| 20260507000525 | 69 | 183 | 3.0 | 7.0 | 0.00 | 0.00 | 0.00 | 81 | 1011.3 |
| 20260507000045 | 69 | 170 | 2.0 | 7.0 | 0.00 | 0.00 | 0.00 | 81 | 1011.5 |
| 20260506235546 | 70 | 206 | 3.0 | 9.0 | 0.00 | 0.00 | 0.00 | 81 | 1013.3 |
| 20260506235522 | 69 | 234 | 3.0 | 10.0 | 0.00 | 0.00 | 0.00 | 81 | 1011.3 |
| 20260506235021 | 69 | 166 | 3.0 | 10.0 | 0.00 | 0.00 | 0.00 | 80 | 1011.4 |
| 20260506234559 | 70 | 173 | 2.0 | 7.0 | 0.00 | 0.00 | 0.00 | 80 | 1013.1 |
| 20260506234545 | 69 | 166 | 4.0 | 10.0 | 0.00 | 0.00 | 0.00 | 80 | 1011.0 |
| 20260506234021 | 70 | 140 | 1.0 | 7.0 | 0.00 | 0.00 | 0.00 | 80 | 1011.1 |
| 20260506233528 | 70 | 193 | 3.0 | 6.0 | 0.00 | 0.00 | 0.00 | 80 | 1013.3 |
| 20260506233521 | 70 | 215 | 3.0 | 8.0 | 0.00 | 0.00 | 0.00 | 80 | 1011.3 |
| 20260506233041 | 70 | 268 | 3.0 | 8.0 | 0.00 | 0.00 | 0.00 | 79 | 1011.4 |
| 20260506232539 | 70 | 143 | 2.0 | 7.0 | 0.00 | 0.00 | 0.00 | 79 | 1012.9 |
| 20260506232521 | 70 | 148 | 3.0 | 6.0 | 0.00 | 0.00 | 0.00 | 79 | 1010.9 |
| 20260506232021 | 70 | 195 | 2.0 | 8.0 | 0.00 | 0.00 | 0.00 | 79 | 1011.3 |
| 20260506231540 | 70 | 237 | 3.0 | 8.0 | 0.00 | 0.00 | 0.00 | 79 | 1011.4 |
| 20260506231514 | 70 | 233 | 2.0 | 7.0 | 0.00 | 0.00 | 0.00 | 79 | 1013.5 |
| 20260506231021 | 70 | 187 | 1.0 | 6.0 | 0.00 | 0.00 | 0.00 | 79 | 1011.4 |
| 20260506230521 | 70 | 195 | 2.0 | 8.0 | 0.00 | 0.00 | 0.00 | 78 | 1011.4 |
| 20260506230450 | 71 | 180 | 3.0 | 10.0 | 0.00 | 0.00 | 0.00 | 78 | 1013.4 |
| 20260506230035 | 70 | 211 | 3.0 | 8.0 | 0.00 | 0.00 | 0.00 | 78 | 1011.6 |
| 20260506225522 | 70 | 204 | 4.0 | 11.0 | 0.00 | 0.00 | 0.00 | 78 | 1011.7 |
| 20260506225501 | 71 | 153 | 3.0 | 10.0 | 0.00 | 0.00 | 0.00 | 78 | 1013.7 |
| 20260506225021 | 70 | 212 | 5.0 | 11.0 | 0.00 | 0.00 | 0.00 | 77 | 1011.7 |
| 20260506224543 | 71 | 253 | 2.0 | 10.0 | 0.00 | 0.00 | 0.00 | 77 | 1011.8 |
| 20260506224500 | 71 | 250 | 3.0 | 9.0 | 0.00 | 0.00 | 0.00 | 77 | 1013.8 |
| 20260506224021 | 71 | 201 | 3.0 | 12.0 | 0.00 | 0.00 | 0.00 | 77 | 1011.9 |
| 20260506223521 | 71 | 219 | 5.0 | 13.0 | 0.00 | 0.00 | 0.00 | 77 | 1012.0 |
| 20260506223511 | 71 | 199 | 4.0 | 12.0 | 0.00 | 0.00 | 0.00 | 77 | 1014.0 |
| 20260506223041 | 71 | 218 | 4.0 | 13.0 | 0.00 | 0.00 | 0.00 | 77 | 1012.1 |
| 20260506222522 | 71 | 157 | 4.0 | 10.0 | 0.00 | 0.00 | 0.00 | 77 | 1012.0 |
| 20260506222022 | 71 | 181 | 5.0 | 16.0 | 0.00 | 0.00 | 0.00 | 76 | 1011.9 |
| 20260506221542 | 71 | 210 | 8.0 | 16.0 | 0.00 | 0.00 | 0.00 | 76 | 1011.9 |
| 20260506221021 | 71 | 211 | 5.0 | 15.0 | 0.00 | 0.00 | 0.00 | 76 | 1011.9 |
| 20260506220521 | 71 | 176 | 8.0 | 15.0 | 0.00 | 0.00 | 0.00 | 76 | 1012.1 |
| 20260506220051 | 71 | 223 | 4.0 | 15.0 | 0.00 | 0.00 | 0.00 | 76 | 1011.8 |
| 20260506215521 | 71 | 245 | 7.0 | 15.0 | 0.00 | 0.00 | 0.00 | 76 | 1011.9 |
| 20260506215200 | 72 | 239 | 4.0 | 9.0 | 0.00 | 0.00 | 0.00 | 76 | 1013.9 |
| 20260506215021 | 71 | 207 | 5.0 | 10.0 | 0.00 | 0.00 | 0.00 | 76 | 1011.9 |
| 20260506214544 | 71 | 220 | 4.0 | 10.0 | 0.00 | 0.00 | 0.00 | 75 | 1011.9 |
| 20260506214213 | 72 | 209 | 5.0 | 14.0 | 0.00 | 0.00 | 0.00 | 75 | 1013.8 |
| 20260506214020 | 71 | 197 | 4.0 | 15.0 | 0.00 | 0.00 | 0.00 | 76 | 1011.8 |
| 20260506213521 | 71 | 181 | 7.0 | 15.0 | 0.00 | 0.00 | 0.00 | 75 | 1011.4 |
| 20260506213141 | 72 | 177 | 6.0 | 14.0 | 0.00 | 0.00 | 0.00 | 75 | 1013.3 |
| 20260506213035 | 71 | 209 | 7.0 | 15.0 | 0.00 | 0.00 | 0.00 | 75 | 1011.4 |
| 20260506212525 | 71 | 162 | 5.0 | 15.0 | 0.00 | 0.00 | 0.00 | 75 | 1011.1 |
| 20260506212154 | 72 | 193 | 6.0 | 15.0 | 0.00 | 0.00 | 0.00 | 74 | 1013.0 |
| 20260506212023 | 72 | 168 | 6.0 | 15.0 | 0.00 | 0.00 | 0.00 | 74 | 1011.0 |
| 20260506211544 | 72 | 226 | 6.0 | 15.0 | 0.00 | 0.00 | 0.00 | 74 | 1010.9 |
| 20260506211133 | 72 | 214 | 7.0 | 15.0 | 0.00 | 0.00 | 0.00 | 74 | 1013.3 |
| 20260506211023 | 72 | 179 | 6.0 | 16.0 | 0.00 | 0.00 | 0.00 | 74 | 1011.3 |
| 20260506210525 | 72 | 203 | 8.0 | 16.0 | 0.00 | 0.00 | 0.00 | 73 | 1011.4 |
| 20260506210042 | 72 | 164 | 7.0 | 15.0 | 0.00 | 0.00 | 0.00 | 73 | 1011.6 |
| 20260506205521 | 72 | 191 | 7.0 | 14.0 | 0.00 | 0.00 | 0.00 | 74 | 1011.4 |
| 20260506205034 | 72 | 224 | 8.0 | 14.0 | 0.00 | 0.00 | 0.00 | 73 | 1013.5 |
| 20260506205021 | 72 | 218 | 8.0 | 19.0 | 0.00 | 0.00 | 0.00 | 73 | 1011.5 |
| 20260506204540 | 72 | 173 | 9.0 | 19.0 | 0.00 | 0.00 | 0.00 | 74 | 1011.6 |
| 20260506204037 | 72 | 183 | 4.0 | 13.0 | 0.00 | 0.00 | 0.00 | 75 | 1013.6 |
| 20260506204021 | 72 | 182 | 5.0 | 16.0 | 0.00 | 0.00 | 0.00 | 75 | 1011.6 |
| 20260506203521 | 71 | 203 | 5.0 | 16.0 | 0.00 | 0.00 | 0.00 | 74 | 1011.6 |
| 20260506203117 | 72 | 139 | 8.0 | 15.0 | 0.00 | 0.00 | 0.00 | 74 | 1011.5 |
| 20260506202521 | 72 | 238 | 6.0 | 15.0 | 0.00 | 0.00 | 0.00 | 73 | 1011.8 |
| 20260506202021 | 72 | 173 | 6.0 | 15.0 | 0.00 | 0.00 | 0.00 | 73 | 1011.8 |
| 20260506201902 | 72 | 249 | 6.0 | 14.0 | 0.00 | 0.00 | 0.00 | 73 | 1013.8 |
| 20260506201541 | 72 | 205 | 6.0 | 15.0 | 0.00 | 0.00 | 0.00 | 73 | 1011.8 |
| 20260506201022 | 72 | 187 | 8.0 | 14.0 | 0.00 | 0.00 | 0.00 | 72 | 1011.9 |
| 20260506200907 | 73 | 188 | 6.0 | 13.0 | 0.00 | 0.00 | 0.00 | 73 | 1014.0 |
| 20260506200522 | 72 | 256 | 4.0 | 13.0 | 0.00 | 0.00 | 0.00 | 73 | 1011.8 |
| 20260506200047 | 72 | 189 | 6.0 | 13.0 | 0.00 | 0.00 | 0.00 | 74 | 1011.8 |
| 20260506195915 | 72 | 178 | 5.0 | 13.0 | 0.00 | 0.00 | 0.00 | 74 | 1013.8 |
| 20260506195521 | 71 | 185 | 5.0 | 15.0 | 0.00 | 0.00 | 0.00 | 74 | 1011.6 |
| 20260506195021 | 71 | 239 | 6.0 | 15.0 | 0.00 | 0.00 | 0.00 | 74 | 1011.6 |
| 20260506194938 | 71 | 195 | 6.0 | 14.0 | 0.00 | 0.00 | 0.00 | 74 | 1013.7 |
| 20260506194536 | 71 | 164 | 5.0 | 18.0 | 0.00 | 0.00 | 0.00 | 74 | 1011.8 |
| 20260506194020 | 70 | 211 | 7.0 | 18.0 | 0.00 | 0.00 | 0.00 | 74 | 1011.7 |
| 20260506193954 | 71 | 184 | 8.0 | 16.0 | 0.00 | 0.00 | 0.00 | 73 | 1013.7 |
| 20260506193521 | 71 | 152 | 9.0 | 18.0 | 0.00 | 0.00 | 0.00 | 73 | 1011.8 |
| 20260506193035 | 71 | 219 | 9.0 | 18.0 | 0.00 | 0.00 | 0.00 | 73 | 1011.8 |
| 20260506192922 | 71 | 212 | 9.0 | 18.0 | 0.00 | 0.00 | 0.00 | 74 | 1013.7 |
| 20260506192521 | 70 | 182 | 10.0 | 18.0 | 0.00 | 0.00 | 0.00 | 73 | 1011.5 |
| 20260506192022 | 69 | 127 | 7.0 | 19.0 | 0.00 | 0.00 | 0.00 | 74 | 1011.6 |
| 20260506191936 | 70 | 190 | 8.0 | 18.0 | 0.00 | 0.00 | 0.00 | 73 | 1013.6 |
| 20260506191550 | 69 | 169 | 10.0 | 19.0 | 0.00 | 0.00 | 0.00 | 73 | 1011.7 |
| 20260506191021 | 70 | 131 | 5.0 | 19.0 | 0.00 | 0.00 | 0.00 | 73 | 1011.6 |
| 20260506190933 | 70 | 176 | 8.0 | 17.0 | 0.00 | 0.00 | 0.00 | 74 | 1013.6 |
| 20260506190521 | 70 | 237 | 9.0 | 16.0 | 0.00 | 0.00 | 0.00 | 73 | 1011.7 |
| 20260506190048 | 70 | 196 | 8.0 | 15.0 | 0.00 | 0.00 | 0.00 | 72 | 1011.7 |
| 20260506185912 | 71 | 204 | 7.0 | 15.0 | 0.00 | 0.00 | 0.00 | 72 | 1013.6 |
| 20260506185521 | 71 | 158 | 9.0 | 17.0 | 0.00 | 0.00 | 0.00 | 71 | 1011.5 |
| 20260506185021 | 71 | 154 | 5.0 | 17.0 | 0.00 | 0.00 | 0.00 | 73 | 1011.5 |
| 20260506184847 | 71 | 206 | 8.0 | 17.0 | 0.00 | 0.00 | 0.00 | 72 | 1013.7 |
| 20260506184551 | 71 | 218 | 8.0 | 20.0 | 0.00 | 0.00 | 0.00 | 72 | 1011.7 |
| 20260506184023 | 70 | 212 | 11.0 | 20.0 | 0.00 | 0.00 | 0.00 | 73 | 1011.7 |
| 20260506183903 | 71 | 172 | 7.0 | 17.0 | 0.00 | 0.00 | 0.00 | 73 | 1013.8 |
| 20260506183521 | 70 | 169 | 6.0 | 19.0 | 0.00 | 0.00 | 0.00 | 76 | 1011.7 |
| 20260506183035 | 69 | 212 | 9.0 | 19.0 | 0.00 | 0.00 | 0.00 | 77 | 1011.8 |
| 20260506182839 | 69 | 199 | 6.0 | 16.0 | 0.00 | 0.00 | 0.00 | 78 | 1014.0 |
| 20260506182521 | 68 | 174 | 7.0 | 17.0 | 0.00 | 0.00 | 0.00 | 80 | 1011.9 |
| 20260506182026 | 67 | 180 | 5.0 | 11.0 | 0.00 | 0.00 | 0.00 | 81 | 1011.9 |
| 20260506181850 | 68 | 178 | 3.0 | 9.0 | 0.00 | 0.00 | 0.00 | 81 | 1013.9 |
| 20260506181542 | 67 | 119 | 5.0 | 11.0 | 0.00 | 0.00 | 0.00 | 82 | 1012.1 |
| 20260506181022 | 67 | 183 | 3.0 | 10.0 | 0.00 | 0.00 | 0.00 | 81 | 1012.4 |
| 20260506180900 | 67 | 225 | 4.0 | 10.0 | 0.00 | 0.00 | 0.00 | 81 | 1014.4 |
| 20260506180522 | 67 | 176 | 5.0 | 11.0 | 0.00 | 0.00 | 0.00 | 81 | 1012.6 |
| 20260506180045 | 67 | 211 | 5.0 | 12.0 | 0.00 | 0.00 | 0.00 | 81 | 1012.7 |
| 20260506175850 | 67 | 174 | 4.0 | 14.0 | 0.00 | 0.00 | 0.00 | 81 | 1015.0 |
| 20260506175521 | 67 | 225 | 3.0 | 12.0 | 0.00 | 0.00 | 0.00 | 81 | 1013.2 |
| 20260506175021 | 67 | 187 | 5.0 | 15.0 | 0.00 | 0.00 | 0.00 | 80 | 1013.3 |
| 20260506174844 | 67 | 198 | 5.0 | 14.0 | 0.00 | 0.00 | 0.00 | 80 | 1015.5 |
| 20260506174541 | 67 | 193 | 6.0 | 15.0 | 0.00 | 0.00 | 0.00 | 79 | 1013.5 |
| 20260506174021 | 67 | 132 | 5.0 | 14.0 | 0.00 | 0.00 | 0.00 | 78 | 1013.5 |
| 20260506173823 | 68 | 173 | 7.0 | 11.0 | 0.00 | 0.00 | 0.00 | 78 | 1015.7 |
| 20260506173521 | 67 | 201 | 7.0 | 14.0 | 0.00 | 0.00 | 0.00 | 77 | 1013.7 |
| 20260506173051 | 68 | 57 | 7.0 | 14.0 | 0.00 | 0.00 | 0.00 | 77 | 1013.9 |
| 20260506172828 | 68 | 197 | 4.0 | 10.0 | 0.00 | 0.00 | 0.00 | 77 | 1015.9 |
| 20260506172521 | 68 | 208 | 6.0 | 11.0 | 0.00 | 0.00 | 0.00 | 76 | 1013.8 |
| 20260506172021 | 68 | 159 | 4.0 | 13.0 | 0.00 | 0.00 | 0.00 | 76 | 1013.8 |
| 20260506171803 | 68 | 195 | 5.0 | 12.0 | 0.00 | 0.00 | 0.00 | 76 | 1015.8 |
| 20260506171539 | 68 | 228 | 6.0 | 13.0 | 0.00 | 0.00 | 0.00 | 76 | 1013.8 |
| 20260506171021 | 68 | 153 | 5.0 | 13.0 | 0.00 | 0.00 | 0.00 | 76 | 1013.9 |
| 20260506170728 | 68 | 216 | 4.0 | 12.0 | 0.00 | 0.00 | 0.00 | 76 | 1015.9 |
| 20260506170521 | 68 | 156 | 6.0 | 14.0 | 0.00 | 0.00 | 0.00 | 76 | 1013.9 |
| 20260506170036 | 67 | 216 | 5.0 | 14.0 | 0.00 | 0.00 | 0.00 | 76 | 1014.0 |
| 20260506165743 | 68 | 254 | 4.0 | 11.0 | 0.00 | 0.00 | 0.00 | 76 | 1016.0 |
| 20260506165522 | 67 | 211 | 6.0 | 12.0 | 0.00 | 0.00 | 0.00 | 76 | 1013.9 |
| 20260506165021 | 67 | 220 | 4.0 | 9.0 | 0.00 | 0.00 | 0.00 | 77 | 1013.8 |
| 20260506164808 | 68 | 183 | 3.0 | 8.0 | 0.00 | 0.00 | 0.00 | 78 | 1015.8 |
| 20260506164536 | 67 | 194 | 3.0 | 9.0 | 0.00 | 0.00 | 0.00 | 77 | 1013.8 |
| 20260506164020 | 67 | 220 | 3.0 | 10.0 | 0.00 | 0.00 | 0.00 | 78 | 1013.9 |
| 20260506163759 | 67 | 195 | 4.0 | 13.0 | 0.00 | 0.00 | 0.00 | 78 | 1015.9 |
| 20260506163522 | 67 | 194 | 6.0 | 15.0 | 0.00 | 0.00 | 0.00 | 78 | 1013.8 |
| 20260506163057 | 67 | 195 | 5.0 | 15.0 | 0.00 | 0.00 | 0.00 | 78 | 1013.8 |
| 20260506162740 | 67 | 183 | 4.0 | 13.0 | 0.00 | 0.00 | 0.00 | 78 | 1015.8 |
| 20260506162523 | 66 | 170 | 3.0 | 10.0 | 0.00 | 0.00 | 0.00 | 78 | 1013.8 |
| 20260506162020 | 66 | 181 | 5.0 | 10.0 | 0.00 | 0.00 | 0.00 | 78 | 1013.7 |
| 20260506161712 | 67 | 177 | 3.0 | 13.0 | 0.00 | 0.00 | 0.00 | 78 | 1015.7 |
| 20260506161540 | 66 | 189 | 3.0 | 10.0 | 0.00 | 0.00 | 0.00 | 78 | 1013.8 |
| 20260506161021 | 66 | 176 | 4.0 | 14.0 | 0.00 | 0.00 | 0.00 | 77 | 1013.7 |
| 20260506160521 | 67 | 225 | 6.0 | 14.0 | 0.00 | 0.00 | 0.00 | 75 | 1013.8 |
| 20260506160042 | 67 | 179 | 7.0 | 14.0 | 0.00 | 0.00 | 0.00 | 73 | 1013.8 |
| 20260506155549 | 68 | 232 | 3.0 | 10.0 | 0.00 | 0.00 | 0.00 | 73 | 1015.7 |
| 20260506155522 | 67 | 246 | 2.0 | 10.0 | 0.00 | 0.00 | 0.00 | 73 | 1013.7 |
| 20260506155021 | 67 | 195 | 3.0 | 10.0 | 0.00 | 0.00 | 0.00 | 73 | 1013.6 |
| 20260506154543 | 67 | 210 | 4.0 | 11.0 | 0.00 | 0.00 | 0.00 | 72 | 1013.4 |
| 20260506154536 | 68 | 181 | 4.0 | 10.0 | 0.00 | 0.00 | 0.00 | 72 | 1015.4 |
| 20260506154022 | 67 | 165 | 4.0 | 11.0 | 0.00 | 0.00 | 0.00 | 72 | 1013.0 |
| 20260506153521 | 67 | 198 | 3.0 | 8.0 | 0.00 | 0.00 | 0.00 | 72 | 1013.1 |
| 20260506153034 | 67 | 158 | 2.0 | 11.0 | 0.00 | 0.00 | 0.00 | 73 | 1013.2 |
| 20260506152521 | 67 | 152 | 5.0 | 12.0 | 0.00 | 0.00 | 0.00 | 73 | 1013.3 |
| 20260506152504 | 67 | 226 | 6.0 | 12.0 | 0.00 | 0.00 | 0.00 | 73 | 1015.3 |
| 20260506152021 | 67 | 188 | 5.0 | 13.0 | 0.00 | 0.00 | 0.00 | 73 | 1013.4 |
| 20260506151543 | 67 | 177 | 8.0 | 13.0 | 0.00 | 0.00 | 0.00 | 73 | 1013.4 |
| 20260506151020 | 66 | 141 | 5.0 | 12.0 | 0.00 | 0.00 | 0.00 | 73 | 1013.4 |
| 20260506150522 | 66 | 152 | 6.0 | 14.0 | 0.00 | 0.00 | 0.00 | 73 | 1013.4 |
| 20260506150332 | 67 | 146 | 4.0 | 12.0 | 0.00 | 0.00 | 0.00 | 73 | 1015.5 |
| 20260506150041 | 66 | 135 | 4.0 | 14.0 | 0.00 | 0.00 | 0.00 | 73 | 1013.4 |
| 20260506145520 | 66 | 193 | 4.0 | 9.0 | 0.00 | 0.00 | 0.00 | 73 | 1013.4 |
| 20260506145325 | 66 | 196 | 4.0 | 10.0 | 0.00 | 0.00 | 0.00 | 73 | 1015.3 |
| 20260506145018 | 66 | 203 | 4.0 | 12.0 | 0.00 | 0.00 | 0.00 | 73 | 1013.2 |
| 20260506144540 | 66 | 161 | 5.0 | 12.0 | 0.00 | 0.00 | 0.00 | 73 | 1013.1 |
| 20260506144256 | 66 | 183 | 5.0 | 12.0 | 0.00 | 0.00 | 0.00 | 73 | 1015.2 |
| 20260506144021 | 66 | 189 | 4.0 | 13.0 | 0.00 | 0.00 | 0.00 | 74 | 1013.3 |
| 20260506143521 | 66 | 126 | 6.0 | 13.0 | 0.00 | 0.00 | 0.00 | 73 | 1013.3 |
| 20260506143040 | 66 | 216 | 6.0 | 13.0 | 0.00 | 0.00 | 0.00 | 73 | 1013.4 |
| 20260506142524 | 65 | 145 | 6.0 | 13.0 | 0.00 | 0.00 | 0.00 | 73 | 1013.3 |
| 20260506142148 | 66 | 225 | 6.0 | 11.0 | 0.00 | 0.00 | 0.00 | 73 | 1015.3 |
| 20260506142024 | 65 | 234 | 5.0 | 13.0 | 0.00 | 0.00 | 0.00 | 73 | 1013.2 |
| 20260506141535 | 65 | 175 | 7.0 | 13.0 | 0.00 | 0.00 | 0.00 | 73 | 1013.2 |
| 20260506141209 | 66 | 268 | 6.0 | 13.0 | 0.00 | 0.00 | 0.00 | 73 | 1015.3 |
| 20260506141023 | 65 | 203 | 7.0 | 14.0 | 0.00 | 0.00 | 0.00 | 73 | 1013.3 |
| 20260506140521 | 65 | 226 | 5.0 | 14.0 | 0.00 | 0.00 | 0.00 | 73 | 1013.1 |
| 20260506140224 | 66 | 164 | 5.0 | 13.0 | 0.00 | 0.00 | 0.00 | 73 | 1015.1 |
| 20260506140044 | 65 | 178 | 3.0 | 13.0 | 0.00 | 0.00 | 0.00 | 73 | 1013.1 |
| 20260506135524 | 65 | 183 | 5.0 | 13.0 | 0.00 | 0.00 | 0.00 | 73 | 1013.1 |
| 20260506135219 | 65 | 176 | 5.0 | 11.0 | 0.00 | 0.00 | 0.00 | 73 | 1014.9 |
| 20260506135020 | 65 | 178 | 6.0 | 13.0 | 0.00 | 0.00 | 0.00 | 73 | 1013.0 |
| 20260506134542 | 65 | 154 | 5.0 | 12.0 | 0.00 | 0.00 | 0.00 | 74 | 1013.1 |
| 20260506134226 | 65 | 176 | 5.0 | 11.0 | 0.00 | 0.00 | 0.00 | 73 | 1015.2 |
| 20260506134021 | 65 | 185 | 5.0 | 12.0 | 0.00 | 0.00 | 0.00 | 74 | 1013.2 |
| 20260506133522 | 64 | 191 | 5.0 | 12.0 | 0.00 | 0.00 | 0.00 | 74 | 1013.3 |
| 20260506133241 | 65 | 245 | 5.0 | 10.0 | 0.00 | 0.00 | 0.00 | 74 | 1015.3 |
| 20260506133044 | 64 | 193 | 4.0 | 11.0 | 0.00 | 0.00 | 0.00 | 74 | 1013.2 |
| 20260506132522 | 64 | 166 | 6.0 | 11.0 | 0.00 | 0.00 | 0.00 | 74 | 1013.4 |
| 20260506132021 | 64 | 193 | 4.0 | 13.0 | 0.00 | 0.00 | 0.00 | 74 | 1013.3 |
| 20260506131540 | 64 | 205 | 7.0 | 17.0 | 0.00 | 0.00 | 0.00 | 74 | 1013.3 |
| 20260506131021 | 64 | 146 | 6.0 | 17.0 | 0.00 | 0.00 | 0.00 | 75 | 1012.9 |
| 20260506130520 | 64 | 160 | 7.0 | 16.0 | 0.00 | 0.00 | 0.00 | 75 | 1012.9 |
| 20260506130041 | 63 | 188 | 5.0 | 16.0 | 0.00 | 0.00 | 0.00 | 75 | 1012.7 |
| 20260506125959 | 64 | 167 | 6.0 | 12.0 | 0.00 | 0.00 | 0.00 | 75 | 1014.6 |
| 20260506125521 | 63 | 135 | 5.0 | 13.0 | 0.00 | 0.00 | 0.00 | 75 | 1012.9 |
| 20260506125018 | 63 | 185 | 4.0 | 13.0 | 0.00 | 0.00 | 0.00 | 75 | 1013.0 |
| 20260506124934 | 64 | 140 | 4.0 | 12.0 | 0.00 | 0.00 | 0.00 | 75 | 1015.2 |
| 20260506124535 | 63 | 179 | 6.0 | 13.0 | 0.00 | 0.00 | 0.00 | 76 | 1013.4 |
| 20260506124022 | 63 | 176 | 5.0 | 13.0 | 0.00 | 0.00 | 0.00 | 76 | 1013.5 |
| 20260506123917 | 63 | 198 | 5.0 | 11.0 | 0.00 | 0.00 | 0.00 | 76 | 1015.5 |
| 20260506123521 | 63 | 191 | 7.0 | 13.0 | 0.00 | 0.00 | 0.00 | 76 | 1013.5 |
| 20260506123036 | 63 | 190 | 4.0 | 14.0 | 0.00 | 0.00 | 0.00 | 76 | 1013.5 |
| 20260506122941 | 63 | 166 | 4.0 | 10.0 | 0.00 | 0.00 | 0.00 | 76 | 1015.5 |
| 20260506122518 | 62 | 216 | 6.0 | 14.0 | 0.00 | 0.00 | 0.00 | 76 | 1013.4 |
| 20260506122017 | 62 | 207 | 5.0 | 13.0 | 0.00 | 0.00 | 0.00 | 77 | 1013.5 |
| 20260506121547 | 62 | 191 | 6.0 | 18.0 | 0.00 | 0.00 | 0.00 | 77 | 1013.6 |
| 20260506121018 | 62 | 185 | 8.0 | 18.0 | 0.00 | 0.00 | 0.00 | 77 | 1013.5 |
| 20260506120755 | 63 | 188 | 6.0 | 15.0 | 0.00 | 0.00 | 0.00 | 77 | 1015.5 |
| 20260506120521 | 62 | 168 | 9.0 | 15.0 | 0.00 | 0.00 | 0.00 | 77 | 1013.4 |
| 20260506120042 | 62 | 172 | 4.0 | 14.0 | 0.00 | 0.00 | 0.00 | 77 | 1013.3 |
| 20260506115820 | 62 | 161 | 5.0 | 11.0 | 0.00 | 0.00 | 0.00 | 77 | 1015.3 |
| 20260506115520 | 62 | 249 | 6.0 | 14.0 | 0.00 | 0.00 | 0.00 | 77 | 1013.4 |
| 20260506115021 | 62 | 154 | 4.0 | 12.0 | 0.00 | 0.00 | 0.00 | 77 | 1013.3 |
| 20260506114841 | 62 | 155 | 4.0 | 11.0 | 0.00 | 0.00 | 0.00 | 77 | 1015.2 |
| 20260506114534 | 62 | 130 | 5.0 | 14.0 | 0.00 | 0.00 | 0.00 | 77 | 1013.1 |
| 20260506114023 | 62 | 201 | 3.0 | 14.0 | 0.00 | 0.00 | 0.00 | 77 | 1013.1 |
| 20260506113851 | 62 | 204 | 6.0 | 11.0 | 0.00 | 0.00 | 0.00 | 77 | 1015.1 |
| 20260506113518 | 62 | 148 | 4.0 | 12.0 | 0.00 | 0.00 | 0.00 | 77 | 1013.0 |
| 20260506113034 | 62 | 187 | 6.0 | 12.0 | 0.00 | 0.00 | 0.00 | 77 | 1013.1 |
| 20260506112818 | 62 | 173 | 4.0 | 9.0 | 0.00 | 0.00 | 0.00 | 77 | 1015.0 |
| 20260506112523 | 62 | 178 | 3.0 | 12.0 | 0.00 | 0.00 | 0.00 | 77 | 1013.1 |
| 20260506112025 | 62 | 214 | 7.0 | 12.0 | 0.00 | 0.00 | 0.00 | 78 | 1012.9 |
| 20260506111750 | 62 | 169 | 4.0 | 12.0 | 0.00 | 0.00 | 0.00 | 78 | 1015.1 |
| 20260506111543 | 61 | 224 | 6.0 | 14.0 | 0.00 | 0.00 | 0.00 | 78 | 1013.1 |
| 20260506111019 | 61 | 142 | 4.0 | 14.0 | 0.00 | 0.00 | 0.00 | 78 | 1012.8 |
| 20260506110750 | 62 | 191 | 4.0 | 12.0 | 0.00 | 0.00 | 0.00 | 78 | 1015.0 |
| 20260506110518 | 61 | 210 | 5.0 | 11.0 | 0.00 | 0.00 | 0.00 | 78 | 1012.9 |
| 20260506110042 | 61 | 139 | 2.0 | 10.0 | 0.00 | 0.00 | 0.00 | 78 | 1012.7 |
| 20260506105811 | 62 | 209 | 3.0 | 8.0 | 0.00 | 0.00 | 0.00 | 78 | 1014.6 |